Clipper Saga — LAFY6 — position and weather

sailwx.info

Track history (hours):
 
Tides and Currents Weather Stations Pressure Air Temp Water Temp Dewpoint Dewpoint Depression Visibility Wind Speed Wind Dir Waves Ship Positions

Clipper Saga

Last reported at 2014-Jul-22 07:33 UTC. Time now 2014-Jul-23 16:00 UTC.
Position N 59°16' E 011°06'.

Length 89 m; draft 5.9 m.

Type: Ship (hazmat cat C). MMSI: 246657008.

Date/timePositionNaut miles runAvg speedWind from/ knotsBaromVisibWave heightAir tempDewpointWater temp
2014-Jul-22 07:33N 59°16' E 011°06'6 6.1
2014-Jul-22 06:33N 59°12' E 010°57'1010.2
2014-Jul-22 05:33N 59°02' E 010°58'8 7.8
2014-Jul-22 04:33N 59°01' E 010°43'1010.4
2014-Jul-22 03:33N 58°53' E 010°30'1010.5
2014-Jul-22 02:33N 58°45' E 010°18'1110.7
2014-Jul-22 01:29N 58°35' E 010°06'1010.3
2014-Jul-22 00:32N 58°28' E 009°54'1110.5
2014-Jul-21 23:31N 58°19' E 009°42'28411.8
2014-Jul-20 23:33N 54°20' E 005°06'1211.7
2014-Jul-20 22:33N 54°10' E 004°56'1111.4
2014-Jul-20 21:33N 53°59' E 004°54'1111.2
2014-Jul-20 20:33N 53°48' E 004°52'1110.9
2014-Jul-20 19:33N 53°37' E 004°51'1110.7
2014-Jul-20 18:33N 53°27' E 004°43'1110.9
2014-Jul-20 17:31N 53°16' E 004°36'1110.8
2014-Jul-20 16:33N 53°07' E 004°28'1110.7
2014-Jul-20 15:33N 52°58' E 004°19'1110.9
2014-Jul-20 14:33N 52°48' E 004°11'1110.8
2014-Jul-20 13:32N 52°40' E 003°60'1110.9
2014-Jul-20 12:33N 52°29' E 003°54'1111.6
2014-Jul-20 11:33N 52°18' E 003°52'1212.1
2014-Jul-20 10:33N 52°06' E 003°55'10 9.7
2014-Jul-20 09:33N 51°59' E 004°06'9 9.3
2014-Jul-20 08:33N 51°53' E 004°18'1 1.2
2014-Jul-20 07:31N 51°52' E 004°16'0 0.0
2014-Jul-20 06:28N 51°52' E 004°16'0 0.0
2014-Jul-20 05:19N 51°52' E 004°16'0 0.0
2014-Jul-20 04:28N 51°52' E 004°16'0 0.0
2014-Jul-20 03:31N 51°52' E 004°16'0 0.0
2014-Jul-20 02:31N 51°52' E 004°16'0 0.0
2014-Jul-20 01:25N 51°52' E 004°16'0 0.0
2014-Jul-20 00:31N 51°52' E 004°16'0 0.0
2014-Jul-19 23:28N 51°52' E 004°16'0 0.0
2014-Jul-19 22:28N 51°52' E 004°16'0 0.0
2014-Jul-19 21:22N 51°52' E 004°16'0 0.0
2014-Jul-19 20:31N 51°52' E 004°16'0 0.0
2014-Jul-19 19:25N 51°52' E 004°16'0 0.0
2014-Jul-19 18:28N 51°52' E 004°16'0 0.0
2014-Jul-19 17:25N 51°52' E 004°16'0 0.0
2014-Jul-19 16:25N 51°52' E 004°16'0 0.0
2014-Jul-19 15:31N 51°52' E 004°16'0 0.0
2014-Jul-19 14:28N 51°52' E 004°16'0 0.0
2014-Jul-19 13:31N 51°52' E 004°16'0 0.0
2014-Jul-19 12:31N 51°52' E 004°16'0 0.0
2014-Jul-19 11:31N 51°52' E 004°16'1 0.6
2014-Jul-19 10:33N 51°53' E 004°17'7 6.9
2014-Jul-19 09:33N 51°58' E 004°09'1212.3
2014-Jul-19 08:33N 51°60' E 003°49'39 9.5
2014-Jul-19 04:24N 51°51' E 002°46'910.2
2014-Jul-19 03:33N 51°57' E 002°36'10 9.5
2014-Jul-19 02:33N 52°06' E 002°34'1110.1
2014-Jul-19 01:31N 52°17' E 002°36'30 9.9
2014-Jul-18 22:30N 52°46' E 002°41'9 9.9
2014-Jul-18 21:33N 52°56' E 002°40'1010.4
2014-Jul-18 20:33N 53°04' E 002°31'1010.0
2014-Jul-18 19:33N 53°13' E 002°23'1010.0
2014-Jul-18 18:33N 53°20' E 002°10'10 9.8
2014-Jul-18 17:33N 53°25' E 001°56'1010.6
2014-Jul-18 16:33N 53°27' E 001°39'1210.6
2014-Jul-18 15:25N 53°31' E 001°20'910.5
2014-Jul-18 14:33N 53°34' E 001°05'1110.7
2014-Jul-18 13:33N 53°34' E 000°47'1211.7
2014-Jul-18 12:33N 53°32' E 000°27'1110.8
2014-Jul-18 11:33N 53°33' E 000°10'1312.8
2014-Jul-18 10:33N 53°38' W 000°10'6 5.2
2014-Jul-18 09:23N 53°44' W 000°15'0 0.0
2014-Jul-18 08:26N 53°44' W 000°15'0 0.0
2014-Jul-18 07:23N 53°44' W 000°15'0 0.0
2014-Jul-18 05:29N 53°44' W 000°15'0 0.0
2014-Jul-18 04:14N 53°44' W 000°15'0 0.0
2014-Jul-18 02:11N 53°44' W 000°15'0 0.0
2014-Jul-18 01:29N 53°44' W 000°15'0 0.0
2014-Jul-18 00:29N 53°44' W 000°15'0 0.0
2014-Jul-17 23:17N 53°44' W 000°15'0 0.0
2014-Jul-17 21:20N 53°44' W 000°15'0 0.0
2014-Jul-17 19:20N 53°44' W 000°15'0 0.0
2014-Jul-17 18:23N 53°44' W 000°15'0 0.0
2014-Jul-17 17:26N 53°44' W 000°15'3 3.3
2014-Jul-17 16:33N 53°41' W 000°13'9 8.6
2014-Jul-17 15:33N 53°36' W 000°02'10 9.9
2014-Jul-17 14:33N 53°33' E 000°14'7 6.6
2014-Jul-17 13:33N 53°36' E 000°25'0 0.2
2014-Jul-17 12:13N 53°36' E 000°25'0 0.1
2014-Jul-17 11:31N 53°36' E 000°25'0 0.0
2014-Jul-17 10:28N 53°36' E 000°25'0 0.1
2014-Jul-17 09:31N 53°36' E 000°25'0 0.0
2014-Jul-17 08:22N 53°36' E 000°25'0 0.0
2014-Jul-17 07:31N 53°36' E 000°25'0 0.0
2014-Jul-17 06:22N 53°36' E 000°25'0 0.0
2014-Jul-17 05:25N 53°36' E 000°25'0 0.1
2014-Jul-17 03:22N 53°36' E 000°25'0 0.0
2014-Jul-17 02:28N 53°36' E 000°25'0 0.0
2014-Jul-17 01:25N 53°36' E 000°25'0 0.0
2014-Jul-17 00:25N 53°36' E 000°25'0 0.0
2014-Jul-16 23:31N 53°36' E 000°25'0 0.1
2014-Jul-16 22:31N 53°36' E 000°25'0 0.1
2014-Jul-16 21:31N 53°36' E 000°25'0 0.0
2014-Jul-16 20:31N 53°36' E 000°25'0 0.1
2014-Jul-16 19:31N 53°36' E 000°25'0 0.0
2014-Jul-16 18:19N 53°36' E 000°25'0 0.0
2014-Jul-16 17:31N 53°36' E 000°25'0 0.1
2014-Jul-16 16:22N 53°36' E 000°25'0 0.0
2014-Jul-16 15:22N 53°36' E 000°25'0 0.0
2014-Jul-16 14:22N 53°36' E 000°25'0 0.0
2014-Jul-16 13:25N 53°36' E 000°25'0 0.0
2014-Jul-16 12:22N 53°36' E 000°25'0 0.0
2014-Jul-16 11:25N 53°36' E 000°25'0 0.0
2014-Jul-16 10:25N 53°36' E 000°25'0 0.0
2014-Jul-16 09:28N 53°36' E 000°25'0 0.1
2014-Jul-16 08:31N 53°36' E 000°25'0 0.0
2014-Jul-16 07:31N 53°36' E 000°25'0 0.0
2014-Jul-16 06:19N 53°36' E 000°25'0 0.0
2014-Jul-16 05:19N 53°36' E 000°25'0 0.0
2014-Jul-16 04:04N 53°36' E 000°25'0 0.2
2014-Jul-16 03:22N 53°36' E 000°25'0 0.0
2014-Jul-16 02:31N 53°36' E 000°25'0 0.0
2014-Jul-16 01:22N 53°36' E 000°25'0 0.0
2014-Jul-16 00:25N 53°36' E 000°25'0 0.0
2014-Jul-15 23:25N 53°36' E 000°25'0 0.0
2014-Jul-15 22:25N 53°36' E 000°25'0 0.1
2014-Jul-15 21:28N 53°36' E 000°25'0 0.1
2014-Jul-15 20:25N 53°36' E 000°25'0 0.0
2014-Jul-15 19:10N 53°36' E 000°25'0 0.1
2014-Jul-15 18:13N 53°36' E 000°25'0 0.1
2014-Jul-15 17:31N 53°36' E 000°25'0 0.0
2014-Jul-15 16:31N 53°36' E 000°25'0 0.1
2014-Jul-15 15:31N 53°36' E 000°25'0 0.0
2014-Jul-15 14:04N 53°36' E 000°25'0 0.0
2014-Jul-15 13:22N 53°36' E 000°25'0 0.0
2014-Jul-15 12:31N 53°36' E 000°25'0 0.0
2014-Jul-15 11:22N 53°36' E 000°25'0 0.0
2014-Jul-15 10:07N 53°36' E 000°25'0 0.1
2014-Jul-15 09:19N 53°36' E 000°25'0 0.1
2014-Jul-15 08:10N 53°36' E 000°25'0 0.0
2014-Jul-15 07:25N 53°36' E 000°25'0 0.0
2014-Jul-15 06:25N 53°36' E 000°25'0 0.0
2014-Jul-15 05:25N 53°36' E 000°25'0 0.0
2014-Jul-15 04:31N 53°36' E 000°25'0 0.0
2014-Jul-15 03:28N 53°36' E 000°25'0 0.2
2014-Jul-15 02:28N 53°36' E 000°25'0 0.1
2014-Jul-15 01:31N 53°36' E 000°25'0 0.0
2014-Jul-14 23:31N 53°36' E 000°25'0 0.0
2014-Jul-14 22:07N 53°36' E 000°25'0 0.1
2014-Jul-14 21:22N 53°36' E 000°25'0 0.1
2014-Jul-14 20:22N 53°36' E 000°25'0 0.1
2014-Jul-14 19:25N 53°36' E 000°25'0 0.0
2014-Jul-14 18:22N 53°36' E 000°25'0 0.0
2014-Jul-14 17:11N 53°36' E 000°25'0 0.0
2014-Jul-14 16:28N 53°36' E 000°25'0 0.1
2014-Jul-14 15:28N 53°36' E 000°25'0 0.1
2014-Jul-14 14:34N 53°36' E 000°25'7 6.5
2014-Jul-14 13:33N 53°33' E 000°35'2613.2
2014-Jul-14 11:34N 53°19' E 001°11'1212.3
2014-Jul-14 10:33N 53°08' E 001°22'1110.6
2014-Jul-14 09:34N 52°59' E 001°32'9 9.2
2014-Jul-14 08:33N 52°53' E 001°42'9 8.7
2014-Jul-14 07:31N 52°47' E 001°54'6911.5
2014-Jul-14 01:28N 51°49' E 002°55'1010.6
2014-Jul-14 00:31N 51°44' E 003°09'9 9.4
2014-Jul-13 23:32N 51°38' E 003°21'1010.4
2014-Jul-13 22:33N 51°29' E 003°30'9 8.8
2014-Jul-13 21:33N 51°25' E 003°42'9 9.3
2014-Jul-13 20:33N 51°23' E 003°57'9 8.8
2014-Jul-13 19:33N 51°24' E 004°11'5 5.1
2014-Jul-13 18:34N 51°21' E 004°17'1 1.3
2014-Jul-13 17:33N 51°20' E 004°19'3 2.9
2014-Jul-13 16:29N 51°17' E 004°20'0 0.0
2014-Jul-13 15:26N 51°17' E 004°20'0 0.0
2014-Jul-13 14:29N 51°17' E 004°20'0 0.0
2014-Jul-13 13:32N 51°17' E 004°20'0 0.0
2014-Jul-13 12:29N 51°17' E 004°20'0 0.0
2014-Jul-13 11:33N 51°17' E 004°20'0 0.0
2014-Jul-13 10:32N 51°17' E 004°20'0 0.0
2014-Jul-13 09:32N 51°17' E 004°20'0 0.0
2014-Jul-13 08:32N 51°17' E 004°20'0 0.0
2014-Jul-13 07:32N 51°17' E 004°20'0 0.0
2014-Jul-13 06:32N 51°17' E 004°20'0 0.0
2014-Jul-13 05:32N 51°17' E 004°20'0 0.0
2014-Jul-13 04:32N 51°17' E 004°20'0 0.0
2014-Jul-13 03:32N 51°17' E 004°20'0 0.0
2014-Jul-13 02:29N 51°17' E 004°20'0 0.0
2014-Jul-13 01:32N 51°17' E 004°20'0 0.0
2014-Jul-13 00:32N 51°17' E 004°20'0 0.0
2014-Jul-12 23:32N 51°17' E 004°20'0 0.0
2014-Jul-12 22:32N 51°17' E 004°20'0 0.0
2014-Jul-12 21:32N 51°17' E 004°20'0 0.0
2014-Jul-12 20:29N 51°17' E 004°20'0 0.0
2014-Jul-12 19:29N 51°17' E 004°20'0 0.0
2014-Jul-12 18:29N 51°17' E 004°20'0 0.0
2014-Jul-12 17:29N 51°17' E 004°20'0 0.0
2014-Jul-12 16:32N 51°17' E 004°20'0 0.0
2014-Jul-12 15:32N 51°17' E 004°20'2 1.7
2014-Jul-12 14:33N 51°15' E 004°22'0 0.0
2014-Jul-12 13:30N 51°15' E 004°22'0 0.0
2014-Jul-12 12:33N 51°15' E 004°22'0 0.0
2014-Jul-12 11:33N 51°15' E 004°22'0 0.0
2014-Jul-12 10:33N 51°15' E 004°22'0 0.0
2014-Jul-12 09:33N 51°15' E 004°22'0 0.0
2014-Jul-12 08:33N 51°15' E 004°22'  
Track history (hours):
 
Tides and Currents Weather Stations Pressure Air Temp Water Temp Dewpoint Dewpoint Depression Visibility Wind Speed Wind Dir Waves Ship Positions

Clipper Saga

Last reported at 2014-Jul-22 07:33 UTC. Time now 2014-Jul-23 16:00 UTC.
Position N 59°16' E 011°06'.

Length 89 m; draft 5.9 m.

Type: Ship (hazmat cat C). MMSI: 246657008.

Date/timePositionNaut miles runAvg speedWind from/ knotsBaromVisibWave heightAir tempDewpointWater temp
2014-Jul-22 07:33N 59°16' E 011°06'6 6.1
2014-Jul-22 06:33N 59°12' E 010°57'1010.2
2014-Jul-22 05:33N 59°02' E 010°58'8 7.8
2014-Jul-22 04:33N 59°01' E 010°43'1010.4
2014-Jul-22 03:33N 58°53' E 010°30'1010.5
2014-Jul-22 02:33N 58°45' E 010°18'1110.7
2014-Jul-22 01:29N 58°35' E 010°06'1010.3
2014-Jul-22 00:32N 58°28' E 009°54'1110.5
2014-Jul-21 23:31N 58°19' E 009°42'28411.8
2014-Jul-20 23:33N 54°20' E 005°06'1211.7
2014-Jul-20 22:33N 54°10' E 004°56'1111.4
2014-Jul-20 21:33N 53°59' E 004°54'1111.2
2014-Jul-20 20:33N 53°48' E 004°52'1110.9
2014-Jul-20 19:33N 53°37' E 004°51'1110.7
2014-Jul-20 18:33N 53°27' E 004°43'1110.9
2014-Jul-20 17:31N 53°16' E 004°36'1110.8
2014-Jul-20 16:33N 53°07' E 004°28'1110.7
2014-Jul-20 15:33N 52°58' E 004°19'1110.9
2014-Jul-20 14:33N 52°48' E 004°11'1110.8
2014-Jul-20 13:32N 52°40' E 003°60'1110.9
2014-Jul-20 12:33N 52°29' E 003°54'1111.6
2014-Jul-20 11:33N 52°18' E 003°52'1212.1
2014-Jul-20 10:33N 52°06' E 003°55'10 9.7
2014-Jul-20 09:33N 51°59' E 004°06'9 9.3
2014-Jul-20 08:33N 51°53' E 004°18'1 1.2
2014-Jul-20 07:31N 51°52' E 004°16'0 0.0
2014-Jul-20 06:28N 51°52' E 004°16'0 0.0
2014-Jul-20 05:19N 51°52' E 004°16'0 0.0
2014-Jul-20 04:28N 51°52' E 004°16'0 0.0
2014-Jul-20 03:31N 51°52' E 004°16'0 0.0
2014-Jul-20 02:31N 51°52' E 004°16'0 0.0
2014-Jul-20 01:25N 51°52' E 004°16'0 0.0
2014-Jul-20 00:31N 51°52' E 004°16'0 0.0
2014-Jul-19 23:28N 51°52' E 004°16'0 0.0
2014-Jul-19 22:28N 51°52' E 004°16'0 0.0
2014-Jul-19 21:22N 51°52' E 004°16'0 0.0
2014-Jul-19 20:31N 51°52' E 004°16'0 0.0
2014-Jul-19 19:25N 51°52' E 004°16'0 0.0
2014-Jul-19 18:28N 51°52' E 004°16'0 0.0
2014-Jul-19 17:25N 51°52' E 004°16'0 0.0
2014-Jul-19 16:25N 51°52' E 004°16'0 0.0
2014-Jul-19 15:31N 51°52' E 004°16'0 0.0
2014-Jul-19 14:28N 51°52' E 004°16'0 0.0
2014-Jul-19 13:31N 51°52' E 004°16'0 0.0
2014-Jul-19 12:31N 51°52' E 004°16'0 0.0
2014-Jul-19 11:31N 51°52' E 004°16'1 0.6
2014-Jul-19 10:33N 51°53' E 004°17'7 6.9
2014-Jul-19 09:33N 51°58' E 004°09'1212.3
2014-Jul-19 08:33N 51°60' E 003°49'39 9.5
2014-Jul-19 04:24N 51°51' E 002°46'910.2
2014-Jul-19 03:33N 51°57' E 002°36'10 9.5
2014-Jul-19 02:33N 52°06' E 002°34'1110.1
2014-Jul-19 01:31N 52°17' E 002°36'30 9.9
2014-Jul-18 22:30N 52°46' E 002°41'9 9.9
2014-Jul-18 21:33N 52°56' E 002°40'1010.4
2014-Jul-18 20:33N 53°04' E 002°31'1010.0
2014-Jul-18 19:33N 53°13' E 002°23'1010.0
2014-Jul-18 18:33N 53°20' E 002°10'10 9.8
2014-Jul-18 17:33N 53°25' E 001°56'1010.6
2014-Jul-18 16:33N 53°27' E 001°39'1210.6
2014-Jul-18 15:25N 53°31' E 001°20'910.5
2014-Jul-18 14:33N 53°34' E 001°05'1110.7
2014-Jul-18 13:33N 53°34' E 000°47'1211.7
2014-Jul-18 12:33N 53°32' E 000°27'1110.8
2014-Jul-18 11:33N 53°33' E 000°10'1312.8
2014-Jul-18 10:33N 53°38' W 000°10'6 5.2
2014-Jul-18 09:23N 53°44' W 000°15'0 0.0
2014-Jul-18 08:26N 53°44' W 000°15'0 0.0
2014-Jul-18 07:23N 53°44' W 000°15'0 0.0
2014-Jul-18 05:29N 53°44' W 000°15'0 0.0
2014-Jul-18 04:14N 53°44' W 000°15'0 0.0
2014-Jul-18 02:11N 53°44' W 000°15'0 0.0
2014-Jul-18 01:29N 53°44' W 000°15'0 0.0
2014-Jul-18 00:29N 53°44' W 000°15'0 0.0
2014-Jul-17 23:17N 53°44' W 000°15'0 0.0
2014-Jul-17 21:20N 53°44' W 000°15'0 0.0
2014-Jul-17 19:20N 53°44' W 000°15'0 0.0
2014-Jul-17 18:23N 53°44' W 000°15'0 0.0
2014-Jul-17 17:26N 53°44' W 000°15'3 3.3
2014-Jul-17 16:33N 53°41' W 000°13'9 8.6
2014-Jul-17 15:33N 53°36' W 000°02'10 9.9
2014-Jul-17 14:33N 53°33' E 000°14'7 6.6
2014-Jul-17 13:33N 53°36' E 000°25'0 0.2
2014-Jul-17 12:13N 53°36' E 000°25'0 0.1
2014-Jul-17 11:31N 53°36' E 000°25'0 0.0
2014-Jul-17 10:28N 53°36' E 000°25'0 0.1
2014-Jul-17 09:31N 53°36' E 000°25'0 0.0
2014-Jul-17 08:22N 53°36' E 000°25'0 0.0
2014-Jul-17 07:31N 53°36' E 000°25'0 0.0
2014-Jul-17 06:22N 53°36' E 000°25'0 0.0
2014-Jul-17 05:25N 53°36' E 000°25'0 0.1
2014-Jul-17 03:22N 53°36' E 000°25'0 0.0
2014-Jul-17 02:28N 53°36' E 000°25'0 0.0
2014-Jul-17 01:25N 53°36' E 000°25'0 0.0
2014-Jul-17 00:25N 53°36' E 000°25'0 0.0
2014-Jul-16 23:31N 53°36' E 000°25'0 0.1
2014-Jul-16 22:31N 53°36' E 000°25'0 0.1
2014-Jul-16 21:31N 53°36' E 000°25'0 0.0
2014-Jul-16 20:31N 53°36' E 000°25'0 0.1
2014-Jul-16 19:31N 53°36' E 000°25'0 0.0
2014-Jul-16 18:19N 53°36' E 000°25'0 0.0
2014-Jul-16 17:31N 53°36' E 000°25'0 0.1
2014-Jul-16 16:22N 53°36' E 000°25'0 0.0
2014-Jul-16 15:22N 53°36' E 000°25'0 0.0
2014-Jul-16 14:22N 53°36' E 000°25'0 0.0
2014-Jul-16 13:25N 53°36' E 000°25'0 0.0
2014-Jul-16 12:22N 53°36' E 000°25'0 0.0
2014-Jul-16 11:25N 53°36' E 000°25'0 0.0
2014-Jul-16 10:25N 53°36' E 000°25'0 0.0
2014-Jul-16 09:28N 53°36' E 000°25'0 0.1
2014-Jul-16 08:31N 53°36' E 000°25'0 0.0
2014-Jul-16 07:31N 53°36' E 000°25'0 0.0
2014-Jul-16 06:19N 53°36' E 000°25'0 0.0
2014-Jul-16 05:19N 53°36' E 000°25'0 0.0
2014-Jul-16 04:04N 53°36' E 000°25'0 0.2
2014-Jul-16 03:22N 53°36' E 000°25'0 0.0
2014-Jul-16 02:31N 53°36' E 000°25'0 0.0
2014-Jul-16 01:22N 53°36' E 000°25'0 0.0
2014-Jul-16 00:25N 53°36' E 000°25'0 0.0
2014-Jul-15 23:25N 53°36' E 000°25'0 0.0
2014-Jul-15 22:25N 53°36' E 000°25'0 0.1
2014-Jul-15 21:28N 53°36' E 000°25'0 0.1
2014-Jul-15 20:25N 53°36' E 000°25'0 0.0
2014-Jul-15 19:10N 53°36' E 000°25'0 0.1
2014-Jul-15 18:13N 53°36' E 000°25'0 0.1
2014-Jul-15 17:31N 53°36' E 000°25'0 0.0
2014-Jul-15 16:31N 53°36' E 000°25'0 0.1
2014-Jul-15 15:31N 53°36' E 000°25'0 0.0
2014-Jul-15 14:04N 53°36' E 000°25'0 0.0
2014-Jul-15 13:22N 53°36' E 000°25'0 0.0
2014-Jul-15 12:31N 53°36' E 000°25'0 0.0
2014-Jul-15 11:22N 53°36' E 000°25'0 0.0
2014-Jul-15 10:07N 53°36' E 000°25'0 0.1
2014-Jul-15 09:19N 53°36' E 000°25'0 0.1
2014-Jul-15 08:10N 53°36' E 000°25'0 0.0
2014-Jul-15 07:25N 53°36' E 000°25'0 0.0
2014-Jul-15 06:25N 53°36' E 000°25'0 0.0
2014-Jul-15 05:25N 53°36' E 000°25'0 0.0
2014-Jul-15 04:31N 53°36' E 000°25'0 0.0
2014-Jul-15 03:28N 53°36' E 000°25'0 0.2
2014-Jul-15 02:28N 53°36' E 000°25'0 0.1
2014-Jul-15 01:31N 53°36' E 000°25'0 0.0
2014-Jul-14 23:31N 53°36' E 000°25'0 0.0
2014-Jul-14 22:07N 53°36' E 000°25'0 0.1
2014-Jul-14 21:22N 53°36' E 000°25'0 0.1
2014-Jul-14 20:22N 53°36' E 000°25'0 0.1
2014-Jul-14 19:25N 53°36' E 000°25'0 0.0
2014-Jul-14 18:22N 53°36' E 000°25'0 0.0
2014-Jul-14 17:11N 53°36' E 000°25'0 0.0
2014-Jul-14 16:28N 53°36' E 000°25'0 0.1
2014-Jul-14 15:28N 53°36' E 000°25'0 0.1
2014-Jul-14 14:34N 53°36' E 000°25'7 6.5
2014-Jul-14 13:33N 53°33' E 000°35'2613.2
2014-Jul-14 11:34N 53°19' E 001°11'1212.3
2014-Jul-14 10:33N 53°08' E 001°22'1110.6
2014-Jul-14 09:34N 52°59' E 001°32'9 9.2
2014-Jul-14 08:33N 52°53' E 001°42'9 8.7
2014-Jul-14 07:31N 52°47' E 001°54'6911.5
2014-Jul-14 01:28N 51°49' E 002°55'1010.6
2014-Jul-14 00:31N 51°44' E 003°09'9 9.4
2014-Jul-13 23:32N 51°38' E 003°21'1010.4
2014-Jul-13 22:33N 51°29' E 003°30'9 8.8
2014-Jul-13 21:33N 51°25' E 003°42'9 9.3
2014-Jul-13 20:33N 51°23' E 003°57'9 8.8
2014-Jul-13 19:33N 51°24' E 004°11'5 5.1
2014-Jul-13 18:34N 51°21' E 004°17'1 1.3
2014-Jul-13 17:33N 51°20' E 004°19'3 2.9
2014-Jul-13 16:29N 51°17' E 004°20'0 0.0
2014-Jul-13 15:26N 51°17' E 004°20'0 0.0
2014-Jul-13 14:29N 51°17' E 004°20'0 0.0
2014-Jul-13 13:32N 51°17' E 004°20'0 0.0
2014-Jul-13 12:29N 51°17' E 004°20'0 0.0
2014-Jul-13 11:33N 51°17' E 004°20'0 0.0
2014-Jul-13 10:32N 51°17' E 004°20'0 0.0
2014-Jul-13 09:32N 51°17' E 004°20'0 0.0
2014-Jul-13 08:32N 51°17' E 004°20'0 0.0
2014-Jul-13 07:32N 51°17' E 004°20'0 0.0
2014-Jul-13 06:32N 51°17' E 004°20'0 0.0
2014-Jul-13 05:32N 51°17' E 004°20'0 0.0
2014-Jul-13 04:32N 51°17' E 004°20'0 0.0
2014-Jul-13 03:32N 51°17' E 004°20'0 0.0
2014-Jul-13 02:29N 51°17' E 004°20'0 0.0
2014-Jul-13 01:32N 51°17' E 004°20'0 0.0
2014-Jul-13 00:32N 51°17' E 004°20'0 0.0
2014-Jul-12 23:32N 51°17' E 004°20'0 0.0
2014-Jul-12 22:32N 51°17' E 004°20'0 0.0
2014-Jul-12 21:32N 51°17' E 004°20'0 0.0
2014-Jul-12 20:29N 51°17' E 004°20'0 0.0
2014-Jul-12 19:29N 51°17' E 004°20'0 0.0
2014-Jul-12 18:29N 51°17' E 004°20'0 0.0
2014-Jul-12 17:29N 51°17' E 004°20'0 0.0
2014-Jul-12 16:32N 51°17' E 004°20'0 0.0
2014-Jul-12 15:32N 51°17' E 004°20'2 1.7
2014-Jul-12 14:33N 51°15' E 004°22'0 0.0
2014-Jul-12 13:30N 51°15' E 004°22'0 0.0
2014-Jul-12 12:33N 51°15' E 004°22'0 0.0
2014-Jul-12 11:33N 51°15' E 004°22'0 0.0
2014-Jul-12 10:33N 51°15' E 004°22'0 0.0
2014-Jul-12 09:33N 51°15' E 004°22'0 0.0
2014-Jul-12 08:33N 51°15' E 004°22'  

Dump ship's entire track history